Retour au catalogue

COSMOS 2251 DEB

ActifVLEO
NORAD 34451·DEBRIS·🇷🇺 Russia

Lancé Jun 16, 1993 depuis Plesetsk Cosmodrome

Loading…

Prochains Passages (prochaines 24 heures)

TLE

FraisSource: Space-Track

Époque: Sep 14, 2026, 09:28 UTC

1 34451U 93036SU  26257.39482145  .00037099  00000-0  17973-2 0  9993
2 34451  74.0381 241.5274 0017715 209.4013 150.6189 15.18235323927884

Suivez COSMOS 2251 DEB en temps réel avec AllMySat

Download on the App Store